Effective Sunday, March 17, 2024, the National Weather Service National Data Buoy Center will discontinue its Dial-A-Buoy Interactive Voice Response system. For more information, see Service Change Notice 24-06 (PDF).

Station SBLM4 - Saginaw Bay Light #1, MI Image indicating link to RSS feed of recent meteorological observations for station SBLM4


Conditions at SBLM4 as of
(7:00 pm EST on 02/29/2024)
0000 GMT on 03/01/2024:
     

Click on the graph icon in the table below to see a time series plot of the last five days of that observation.

5-day plot - Wind Direction Wind Direction (WDIR):SSW ( 210 deg true )
5-day plot - Wind Speed Wind Speed (WSPD): 12.0 kts
5-day plot - Wind Gust Wind Gust (GST): 15.0 kts
5-day plot - Atmospheric Pressure Atmospheric Pressure (PRES):30.31 in
5-day plot - Pressure Tendency Pressure Tendency (PTDY):-0.03 in ( Falling )
5-day plot - Wind Speed at 10 Meters Wind Speed at 10 meters (WSPD10M): 11.7 kts
5-day plot - Wind Speed at 20 Meters Wind Speed at 20 meters (WSPD20M): 11.7 kts
5-day plot -  Wind Speed, Wind Gust and Atmospheric Pressure Combined plot of Wind Speed, Gust, and Air Pressure
Previous observations
TIME
(EST)
5-day plot - Wind Direction
WDIR
 
5-day plot - Wind Speed
WSPD
kts
5-day plot - Wind Gust
GST
kts
5-day plot - Wave Height
WVHT
ft
5-day plot - Dominant Wave Period
DPD
sec
5-day plot - Average Wave Period
APD
sec
5-day plot - Mean Wave Direction
MWD
 
5-day plot - Atmospheric Pressure
PRES
in
5-day plot - Pressure Tendency
PTDY
in
5-day plot - Air Temperature
ATMP
°F
5-day plot - Water Temperature
WTMP
°F
5-day plot - Dew Point
DEWP
°F
5-day plot - Salinity
SAL
psu
5-day plot - Visibility
VIS
nmi
5-day plot - Tide (above MLLW)
TIDE
ft
2024-02-29 06:50 pm SW 13.0 15.0----30.31-------
2024-02-29 06:40 pm SW 13.0 17.1----30.31-------
2024-02-29 06:00 pmWSW 15.0 15.9----30.32-0.02------
2024-02-29 05:50 pmWSW 13.0 15.0----30.32-------
2024-02-29 05:40 pmWSW 15.0 15.9----30.32-------
2024-02-29 05:30 pmWSW 14.0 15.9----30.32-------
2024-02-29 05:20 pm SW 14.0 17.1----30.32-------
2024-02-29 05:10 pmWSW 14.0 18.1----30.33-------
2024-02-29 05:00 pmWSW 13.0 15.0----30.33-0.03------
2024-02-29 04:50 pmWSW 13.0 17.1----30.33-------
2024-02-29 04:40 pmWSW 13.0 17.1----30.33-------
2024-02-29 04:30 pmWSW 12.0 18.1----30.33-------
2024-02-29 04:20 pmWSW 13.0 15.0----30.34-------
2024-02-29 04:10 pmWSW 12.0 14.0----30.34-------
2024-02-29 04:00 pmWSW 9.9 15.0----30.34-0.04------
2024-02-29 03:50 pm W 11.1 15.0----30.34-------
2024-02-29 03:40 pm W 15.0 18.1----30.34-------
2024-02-29 03:30 pm W 15.0 17.1----30.34-------
2024-02-29 03:20 pm W 12.0 15.0----30.35-------
2024-02-29 03:10 pm W 14.0 17.1----30.35-------
2024-02-29 03:00 pmWSW 11.1 15.9----30.34-0.05------
2024-02-29 02:50 pm W 12.0 17.1----30.35-------
2024-02-29 02:40 pmWSW 15.0 18.1----30.35-------
2024-02-29 02:30 pm W 13.0 15.9----30.35-------
2024-02-29 02:20 pm W 15.0 17.1----30.35-------
2024-02-29 02:10 pm W 14.0 17.1----30.36-------
2024-02-29 02:00 pm W 14.0 19.0----30.36-0.03------
2024-02-29 01:50 pm W 14.0 19.0----30.36-------
2024-02-29 01:40 pm W 14.0 19.0----30.37-------
2024-02-29 01:30 pm W 18.1 22.9----30.37-------
2024-02-29 01:20 pmWSW 15.9 18.1----30.37-------
2024-02-29 01:10 pm W 14.0 17.1----30.38-------
2024-02-29 01:00 pmWSW 15.0 18.1----30.38+0.00------
2024-02-29 12:50 pm W 14.0 17.1----30.38-------
2024-02-29 12:40 pm W 13.0 18.1----30.38-------
2024-02-29 12:30 pm W 9.9 15.0----30.39-------
2024-02-29 12:20 pmWSW 12.0 17.1----30.39-------
2024-02-29 12:10 pm W 12.0 15.9----30.39-------
2024-02-29 12:00 pm W 12.0 15.9----30.39+0.03------
2024-02-29 11:50 am W 12.0 15.9----30.39-------
2024-02-29 11:40 am W 9.9 15.9----30.39-------
2024-02-29 11:30 am W 12.0 15.0----30.39-------
2024-02-29 11:20 am W 12.0 15.9----30.39-------
2024-02-29 11:10 am W 13.0 15.9----30.39-------
2024-02-29 11:00 am W 14.0 15.9----30.39+0.04------
2024-02-29 10:50 am W 13.0 17.1----30.39-------
2024-02-29 10:40 am W 14.0 18.1----30.38-------
2024-02-29 10:30 am W 15.0 17.1----30.38-------
2024-02-29 10:20 am W 15.0 20.0----30.38-------
2024-02-29 10:10 amWNW 12.0 20.0----30.38-------
2024-02-29 10:00 am W 15.0 21.0----30.38+0.06------
2024-02-29 09:50 amWNW 17.1 21.0----30.38-------
2024-02-29 09:40 amWNW 15.0 22.9----30.38-------
2024-02-29 09:30 amWNW 18.1 22.0----30.37-------
2024-02-29 09:20 amWNW 20.0 24.1----30.36-------
2024-02-29 09:10 amWNW 22.0 25.1----30.36-------
2024-02-29 09:00 am W 20.0 22.9----30.36+0.06------
2024-02-29 08:50 amWNW 18.1 24.1----30.37-------
2024-02-29 08:40 am W 19.0 22.0----30.36-------
2024-02-29 08:30 amWNW 19.0 21.0----30.35-------
2024-02-29 08:20 am W 15.0 22.0----30.36-------
2024-02-29 08:10 am W 17.1 22.0----30.36-------
2024-02-29 08:00 amWNW 15.0 20.0----30.35+0.07------
2024-02-29 07:50 amWNW 18.1 21.0----30.35-------
2024-02-29 07:40 amWNW 15.9 24.1----30.34-------
2024-02-29 07:30 amWNW 15.9 21.0----30.34-------
2024-02-29 07:20 am W 17.1 25.1----30.33-------
2024-02-29 07:10 am W 18.1 22.0----30.33-------
2024-02-29 07:00 amWNW 17.1 24.1----30.32+0.08------
2024-02-29 06:50 amWNW 18.1 22.0----30.32-------
2024-02-29 06:40 amWNW 19.0 22.0----30.31-------
2024-02-29 06:30 amWNW 17.1 21.0----30.31-------
2024-02-29 06:20 amWNW 18.1 24.1----30.31-------
2024-02-29 06:10 amWNW 18.1 22.0----30.30-------
2024-02-29 06:00 amWNW 17.1 22.0----30.30+0.08------
2024-02-29 05:50 amWNW 18.1 25.1----30.30-------
2024-02-29 05:40 amWNW 18.1 25.1----30.29-------
2024-02-29 05:30 amWNW 19.0 24.1----30.28-------
2024-02-29 05:20 amWNW 20.0 25.1----30.28-------
2024-02-29 05:10 amWNW 21.0 26.0----30.27-------
2024-02-29 05:00 amWNW 18.1 25.1----30.28+0.08------
2024-02-29 04:50 am NW 20.0 28.0----30.27-------
2024-02-29 04:40 amWNW 21.0 26.0----30.26-------
2024-02-29 04:30 amWNW 22.9 27.0----30.25-------
2024-02-29 04:20 amWNW 21.0 26.0----30.25-------
2024-02-29 04:10 am NW 21.0 26.0----30.25-------
2024-02-29 04:00 amWNW 22.9 26.0----30.24+0.07------
2024-02-29 03:50 amWNW 21.0 28.0----30.24-------
2024-02-29 03:40 amWNW 22.9 26.0----30.23-------
2024-02-29 03:30 amWNW 21.0 26.0----30.23-------
2024-02-29 03:20 am NW 20.0 26.0----30.23-------
2024-02-29 03:10 am NW 19.0 24.1----30.22-------
2024-02-29 03:00 amWNW 15.9 19.0----30.22+0.09------
2024-02-29 02:50 amWNW 15.0 21.0----30.22-------
2024-02-29 02:40 amNNW 17.1 21.0----30.22-------
2024-02-29 02:30 amNNW 19.0 21.0----30.22-------
2024-02-29 02:20 am NW 17.1 20.0----30.21-------
2024-02-29 02:10 am NW 15.9 19.0----30.21-------
2024-02-29 02:00 amNNW 15.9 19.0----30.20+0.08------
2024-02-29 01:50 am NW 18.1 20.0----30.19-------
2024-02-29 01:40 am NW 17.1 21.0----30.18-------
2024-02-29 01:30 am NW 17.1 26.0----30.18-------
2024-02-29 01:20 am NW 22.0 25.1----30.18-------
2024-02-29 01:10 am NW 22.9 26.0----30.18-------
2024-02-29 01:00 am NW 22.9 26.0----30.17+0.06------
2024-02-29 12:50 am NW 24.1 28.0----30.16-------
2024-02-29 12:40 am W 21.0 25.1----30.15-------
2024-02-29 12:30 am W 21.0 26.0----30.13-------
2024-02-29 12:20 am W 21.0 25.1----30.14-------
2024-02-29 12:10 am W 21.0 28.0----30.13-------
2024-02-29 12:00 am W 22.0 28.0----30.13+0.04------
2024-02-28 11:50 pm W 22.0 28.0----30.12-------
2024-02-28 11:40 pm W 20.0 28.0----30.12-------
2024-02-28 11:30 pm W 22.0 29.9----30.12-------
2024-02-28 11:20 pm W 22.9 29.9----30.12-------
2024-02-28 11:10 pm W 24.1 29.9----30.12-------
2024-02-28 11:00 pm W 25.1 27.0----30.12+0.06------
2024-02-28 10:50 pm W 20.0 28.9----30.12-------
2024-02-28 10:40 pm W 25.1 29.9----30.11-------
2024-02-28 10:30 pm W 26.0 31.1----30.10-------
2024-02-28 10:20 pm W 25.1 28.9----30.10-------
2024-02-28 10:10 pm W 20.0 27.0----30.11-------
2024-02-28 10:00 pm W 21.0 26.0----30.11+0.08------
2024-02-28 09:50 pm W 18.1 22.0----30.10-------
2024-02-28 09:40 pm W 17.1 28.0----30.11-------
2024-02-28 09:30 pm W 15.0 19.0----30.09-------
2024-02-28 09:20 pm W 14.0 22.0----30.10-------
2024-02-28 09:10 pmWNW 18.1 22.0----30.09-------
2024-02-28 09:00 pmWNW 19.0 24.1----30.09+0.14------
2024-02-28 08:50 pm W 20.0 26.0----30.09-------
2024-02-28 08:40 pm W 15.9 22.9----30.09-------
2024-02-28 08:30 pmWNW 20.0 25.1----30.08-------
2024-02-28 08:20 pmWNW 24.1 28.0----30.08-------
2024-02-28 08:10 pmWNW 21.0 28.9----30.07-------
2024-02-28 08:00 pmWNW 26.0 32.1----30.06+0.18------
2024-02-28 07:50 pmWNW 24.1 31.1----30.06-------
2024-02-28 07:40 pmWNW 27.0 33.0----30.05-------
2024-02-28 07:30 pm W 24.1 32.1----30.04-------
2024-02-28 07:20 pmWNW 26.0 35.0----30.02-------
2024-02-28 07:10 pmWNW 22.0 32.1----30.04-------
2024-02-28 07:00 pmWNW 26.0 34.0----30.03+0.21------
2024-02-28 06:50 pmWNW 26.0 33.0----30.01-------